Weather History for FBFT - January, 2012

Change the Weather History Date:

Wednesday, January 18, 2012

  Actual Average Record
Temperature  
Mean Temperature 76 °F -  
Max Temperature 88 °F 84 °F 95 °F (1998)
Min Temperature 64 °F 65 °F 60 °F (2000)
Cooling Degree Days 11    
Growing Degree Days 26 (Base 50)    
Moisture  
Dew Point 61 °F    
Average Humidity 61    
Maximum Humidity 88    
Minimum Humidity 39    
Precipitation  
Precipitation 0.00 in - - ()
Sea Level Pressure  
Sea Level Pressure 29.85 in    
Wind  
Wind Speed 4 mph ()    
Max Wind Speed 15 mph    
Max Gust Speed -    
Visibility 6.2 miles    
Events Thunderstorm    
Averages and records for this station are not official NWS values.
T = Trace of Precipitation, MM = Missing Value Source: Averaged Metar Reports

Daily Weather History Graph

Daily Weather History Graph

Search for Another Location

Airport or City:

Trip Planner

Search our weather history database for the weather conditions in past years. The results will help you decide how hot, cold, wet, or windy it might be!

Date:

Astronomy

Jan. 18, 2012 Rise Set
Actual Time 5:42 AM CAT 6:57 PM CAT
Civil Twilight 5:18 AM CAT 7:21 PM CAT
Nautical Twilight 4:49 AM CAT 7:50 PM CAT
Astronomical Twilight 4:20 AM CAT 8:20 PM CAT
Moon 12:51 AM CAT (1/18) 2:26 PM CAT (1/18)
Length of Visible Light 14h 03m
Length of Day
13h 14m
Waning Crescent, 28% of the Moon is Illuminated
Jan 18
Waning Crescent
Jan 23
New
Jan 31
First Quarter
Feb 7
Full
Feb 14
Last Quarter

Hourly Weather History & Observations

Time (CAT) Temp. Heat Index Dew Point Humidity Pressure Visibility Wind Dir Wind Speed Gust Speed Precip Events Conditions
12:00 AM 73.4 °F - 59.0 °F 61% 29.89 in - SE 3.5 mph - N/A   Clear
1:00 AM 71.6 °F - 59.0 °F 64% 29.89 in - SSE 3.5 mph - N/A   Clear
2:00 AM 70 °F - 58 °F 57%  in 6 mi SSE 3.5 mph - -  
2:00 AM 69.8 °F - 57.2 °F 64% 29.86 in - SSE 3.5 mph - N/A   Clear
3:00 AM 68.0 °F - 59.0 °F 73% 29.86 in - SSE 4.6 mph - N/A   Clear
4:00 AM 68.0 °F - 59.0 °F 73% 29.86 in - SE 3.5 mph - N/A   Clear
5:00 AM 66.2 °F - 59.0 °F 78% 29.86 in - Variable 2.3 mph - N/A   Clear
6:00 AM 62.6 °F - 59.0 °F 88% 29.89 in - NW 3.5 mph - N/A   Clear
7:00 AM 69.8 °F - 60.8 °F 73% 29.92 in - Variable 1.2 mph - N/A   Clear
8:00 AM 74 °F - 61 °F 55%  in 6 mi SE 4.6 mph - -   Partly Cloudy
8:00 AM 73.4 °F - 60.8 °F 65% 29.92 in - SE 4.6 mph - N/A   Clear
9:00 AM 78.8 °F - 60.8 °F 54% 29.92 in 6.2 mi SE 5.8 mph - N/A   Partly Cloudy
10:00 AM 82.4 °F 82.9 °F 60.8 °F 48% 29.89 in 6.2 mi SE 5.8 mph - N/A   Partly Cloudy
11:00 AM 86.0 °F 86.1 °F 60.8 °F 43% 29.86 in 6.2 mi NW 5.8 mph - N/A   Partly Cloudy
1:00 PM 86.0 °F 86.1 °F 60.8 °F 43% 29.83 in 6.2 mi Variable 4.6 mph - N/A   Partly Cloudy
2:00 PM 81 °F - 60 °F 39%  in 6 mi South 4.6 mph - -   Partly Cloudy
2:00 PM 80.6 °F 81.1 °F 59.0 °F 48% 29.80 in 6.2 mi South 4.6 mph - N/A   Scattered Clouds
3:00 PM 86.0 °F 86.1 °F 60.8 °F 43% 29.77 in 6.2 mi NW 6.9 mph - N/A   Scattered Clouds
4:00 PM 87.8 °F 87.6 °F 60.8 °F 40% 29.74 in 6.2 mi Variable 3.5 mph - N/A   Scattered Clouds
5:00 PM 86.0 °F 86.1 °F 60.8 °F 43% 29.77 in 6.2 mi SE 3.5 mph - N/A   Scattered Clouds
6:00 PM 78.8 °F - 62.6 °F 57% 29.77 in 6.2 mi NNE 5.8 mph - N/A Thunderstorm Thunderstorm
7:00 PM 75.2 °F - 64.4 °F 69% 29.83 in 6.2 mi NNE 9.2 mph - N/A Thunderstorm Thunderstorm
8:00 PM 74 °F - 65 °F 66%  in 6 mi East 9.2 mph - - Thunderstorm Thunderstorm
8:00 PM 73.4 °F - 64.4 °F 73% 29.86 in 6.2 mi East 9.2 mph - N/A Thunderstorm Thunderstorm
9:00 PM 75.2 °F - 66.2 °F 73% 29.89 in 6.2 mi ESE 15.0 mph - N/A Thunderstorm Thunderstorm
10:00 PM 73.4 °F - 64.4 °F 73% 29.89 in 6.2 mi East 13.8 mph - N/A   Scattered Clouds
11:00 PM 73.4 °F - 64.4 °F 73% 29.89 in 6.2 mi East 9.2 mph - N/A   Scattered Clouds